Find Starlink 34005

NORAD ID: 63935 Int'l Des: 2025-098 Owner: SPXS Country: US Constellation: starlink operational
LEOCIRCULAR

現在のビュー

3D地球を読み込み中...

About Starlink 34005

Starlink 34005 (NORAD 63935) is a starlink constellation satellite (v2 mini) launched May 13, 2025 by SPXS of US. It operates in LEO, CIRCULAR orbit with a mass of 575.00 kg.

次回通過

Passes for default location (London). Set your location on the main map for personalized predictions.

高度履歴

Loading altitude history...

軌道要素

1 63935U 25098K 26263.11781714 .00009685 00000-0 34079-3 0 9993
2 63935 70.0005 141.9302 0002731 283.3589 76.7282 15.29593489 75741
Epoch: Sep 20, 2026 • Age: 14 hours

現在のステータス

高度 479.1 km
遠地点 / 近地点 N/A
速度 7.63 km/s
衛星直下点 18.25°N, 107.94°W
打ち上げ日 May 13, 2025
運用期間 1.3 years
タイプ internet

技術仕様

分類 Payload
質量 575.00 kg
乾燥質量 530.00 kg
長さ 0.30 m
スパン 29.00 m
形状 ? Box + pan
製造者 SPXS
バスタイプ Starlink V2MO
フェーズステータス In Orbit
所有者/国 SPXS/US

Most Searched